Scottsdale, AZ

5:06 PM MST on August 18, 2017 (GMT -0700)
Scottsdale

Weather History for KSDL - August, 2013

Change the Weather History Date:

Thursday, August 22, 2013

  Actual Average Record
Temperature  
Mean Temperature 93 °F -  
Max Temperature 102 °F 99 °F 109 °F (1999)
Min Temperature 84 °F 79 °F 70 °F (2014)
Cooling Degree Days 28    
Growing Degree Days 43 (Base 50)    
Moisture  
Dew Point 57 °F    
Average Humidity 32    
Maximum Humidity 46    
Minimum Humidity 20    
Precipitation  
Precipitation 0.00 in - - ()
Sea Level Pressure  
Sea Level Pressure 29.80 in    
Wind  
Wind Speed 2 mph (WSW)    
Max Wind Speed 15 mph    
Max Gust Speed 22 mph    
Visibility 10 miles    
Events      
Averages and records for this station are not official NWS values.
T = Trace of Precipitation, MM = Missing Value Source: NWS Daily Summary

Daily Weather History Graph

Daily Weather History Graph

Search for Another Location

Airport or City:

Trip Planner

Search our weather history database for the weather conditions in past years. The results will help you decide how hot, cold, wet, or windy it might be!

Date:

Astronomy

Aug. 22, 2013 Rise Set
Actual Time 5:54 AM MST 7:05 PM MST
Civil Twilight 5:29 AM MST 7:31 PM MST
Nautical Twilight 4:58 AM MST 8:01 PM MST
Astronomical Twilight 4:26 AM MST 8:33 PM MST
Moon 8:01 PM MST (8/22) 7:39 AM MST (8/22)
Length of Visible Light 14h 02m
Length of Day
13h 10m
Waning Gibbous, 96% of the Moon is Illuminated
Aug 22
Waning Gibbous
Aug 28
Last Quarter
Sep 5
New
Sep 12
First Quarter
Sep 19
Full

Hourly Weather History & Observations

Time (MST) Temp. Heat Index Dew Point Humidity Pressure Visibility Wind Dir Wind Speed Gust Speed Precip Events Conditions
12:53 AM 84.9 °F 85.4 °F 62.1 °F 46% 29.82 in 10.0 mi Calm Calm - N/A   Clear
1:53 AM 86.0 °F 85.7 °F 60.1 °F 41% 29.82 in 10.0 mi Calm Calm - N/A   Clear
2:53 AM 84.9 °F 84.4 °F 59.0 °F 41% 29.83 in 10.0 mi Calm Calm - N/A   Clear
3:53 AM 86.0 °F 85.0 °F 57.9 °F 38% 29.82 in 10.0 mi Calm Calm - N/A   Clear
4:53 AM 84.9 °F 84.8 °F 60.1 °F 43% 29.81 in 10.0 mi Calm Calm - N/A   Clear
5:53 AM 84.9 °F 84.4 °F 59.0 °F 41% 29.82 in 10.0 mi Calm Calm - N/A   Clear
6:53 AM 84.9 °F 84.4 °F 59.0 °F 41% 29.83 in 10.0 mi Calm Calm - N/A   Clear
7:53 AM 87.1 °F 86.5 °F 59.0 °F 39% 29.85 in 10.0 mi Calm Calm - N/A   Clear
8:53 AM 91.9 °F 90.8 °F 57.9 °F 32% 29.86 in 10.0 mi SSW 3.5 mph - N/A   Clear
9:53 AM 93.9 °F 92.2 °F 55.9 °F 28% 29.87 in 10.0 mi Calm Calm - N/A   Partly Cloudy
10:53 AM 96.1 °F 95.2 °F 57.9 °F 28% 29.86 in 10.0 mi South 4.6 mph - N/A   Clear
11:53 AM 98.1 °F 96.8 °F 57.0 °F 25% 29.85 in 10.0 mi NW 4.6 mph - N/A   Clear
12:53 PM 99.0 °F 97.7 °F 55.9 °F 24% 29.82 in 10.0 mi Calm Calm - N/A   Mostly Cloudy
1:53 PM 100.9 °F 99.6 °F 55.0 °F 22% 29.78 in 10.0 mi Calm Calm - N/A   Clear
2:53 PM 102.0 °F 100.1 °F 54.0 °F 20% 29.74 in 10.0 mi NE 9.2 mph - N/A   Clear
3:53 PM 102.0 °F 100.1 °F 54.0 °F 20% 29.70 in 10.0 mi WSW 5.8 mph - N/A   Clear
4:53 PM 100.9 °F 99.1 °F 54.0 °F 21% 29.70 in 10.0 mi SW 8.1 mph - N/A   Clear
5:53 PM 99.0 °F 97.3 °F 55.0 °F 23% 29.71 in 10.0 mi WSW 8.1 mph 16.1 mph N/A   Clear
6:53 PM 98.1 °F 96.1 °F 54.0 °F 23% 29.73 in 10.0 mi SW 4.6 mph - N/A   Clear
7:53 PM 93.9 °F 92.2 °F 55.9 °F 28% 29.77 in 10.0 mi ENE 15.0 mph 21.9 mph N/A   Clear
8:53 PM 93.0 °F 90.8 °F 54.0 °F 27% 29.78 in 10.0 mi Calm Calm - N/A   Partly Cloudy
9:53 PM 91.0 °F 90.2 °F 59.0 °F 34% 29.80 in 10.0 mi West 10.4 mph 21.9 mph N/A   Clear
10:53 PM 90.0 °F 89.1 °F 59.0 °F 35% 29.80 in 10.0 mi West 4.6 mph - N/A   Clear
11:53 PM 89.1 °F 88.2 °F 59.0 °F 36% 29.79 in 10.0 mi WSW 3.5 mph - N/A   Clear